Location: Brabourne
(51.1333°N, 1.0000°E)
Time: 20:48:48
(UTC+00:00)

Cosmos 1825 Rocket - Pass Details

Date: 22 October 2021
Orbit: 604 x 631 km, 82.5° (Epoch: 03 December)

Event Time Altitude Azimuth Distance (km) Brightness Sun altitude
Rises 20:48:41 0° 332° (NNW) 2,879 7.7 -37.1°
Reaches altitude 10° 20:52:09 10° 303° (WNW) 1,964 6.9 -37.6°
Enters shadow 20:53:34 12° 284° (WNW) 1,815 6.6 -37.8°
